The Dalles, WA

12:20 PM PST on February 17, 2018 (GMT -0800)
Columbia Gorge Regional-The Dalles

Weather History for KDLS - August, 2013

Change the Weather History Date:

Saturday, August 17, 2013

  Actual Average Record
Temperature  
Mean Temperature 76 °F -  
Max Temperature 89 °F 87 °F 110 °F (1977)
Min Temperature 66 °F 58 °F 49 °F (1969)
Cooling Degree Days 12    
Growing Degree Days 26 (Base 50)    
Moisture  
Dew Point 56 °F    
Average Humidity 50    
Maximum Humidity 76    
Minimum Humidity 31    
Precipitation  
Precipitation 0.00 in - - ()
Sea Level Pressure  
Sea Level Pressure 29.97 in    
Wind  
Wind Speed 11 mph (WNW)    
Max Wind Speed 24 mph    
Max Gust Speed 33 mph    
Visibility 10 miles    
Events      
Averages and records for this station are not official NWS values.
T = Trace of Precipitation, MM = Missing Value Source: NWS Daily Summary

Daily Weather History Graph

Daily Weather History Graph

Search for Another Location

Airport or City:

Trip Planner

Search our weather history database for the weather conditions in past years. The results will help you decide how hot, cold, wet, or windy it might be!

Date:

Astronomy

Aug. 17, 2013 Rise Set
Actual Time 6:07 AM PDT 8:08 PM PDT
Civil Twilight 5:35 AM PDT 8:40 PM PDT
Nautical Twilight 4:56 AM PDT 9:19 PM PDT
Astronomical Twilight 4:12 AM PDT 10:03 PM PDT
Moon 5:33 PM PDT 2:10 AM PDT
Length of Visible Light 15h 04m
Length of Day
14h 00m
Waxing Gibbous, 85% of the Moon is Illuminated
Aug 17
Waxing Gibbous
Aug 20
Full
Aug 28
Last Quarter
Sep 5
New
Sep 12
First Quarter

Hourly Weather History & Observations

Time (PDT) Temp. Heat Index Dew Point Humidity Pressure Visibility Wind Dir Wind Speed Gust Speed Precip Events Conditions
12:53 AM 73.0 °F - 61.0 °F 66% 29.96 in 10.0 mi NW 8.1 mph - N/A   Clear
1:53 AM 72.0 °F - 61.0 °F 68% 29.97 in 10.0 mi West 8.1 mph - N/A   Clear
2:53 AM 70.0 °F - 61.0 °F 73% 29.97 in 10.0 mi West 8.1 mph - N/A   Clear
3:53 AM 69.1 °F - 61.0 °F 75% 29.98 in 10.0 mi WNW 8.1 mph - N/A   Clear
4:53 AM 68.0 °F - 60.1 °F 76% 29.98 in 10.0 mi WNW 5.8 mph - N/A   Clear
5:53 AM 66.0 °F - 57.9 °F 75% 30.00 in 10.0 mi SW 4.6 mph - N/A   Clear
6:53 AM 69.1 °F - 57.0 °F 65% 30.01 in 10.0 mi West 11.5 mph - N/A   Clear
7:53 AM 71.1 °F - 57.0 °F 61% 30.02 in 10.0 mi NW 8.1 mph - N/A   Clear
8:53 AM 73.9 °F - 55.9 °F 53% 30.01 in 10.0 mi NW 8.1 mph - N/A   Clear
9:53 AM 78.1 °F - 54.0 °F 43% 30.01 in 10.0 mi NW 11.5 mph - N/A   Clear
10:53 AM 81.0 °F 80.5 °F 54.0 °F 39% 30.00 in 10.0 mi NW 13.8 mph 20.7 mph N/A   Clear
11:53 AM 84.0 °F 82.5 °F 53.1 °F 34% 29.98 in 10.0 mi WNW 15.0 mph - N/A   Clear
12:53 PM 82.9 °F 81.8 °F 53.1 °F 36% 29.96 in 10.0 mi NW 12.7 mph 21.9 mph N/A   Clear
1:53 PM 84.9 °F 83.2 °F 53.1 °F 33% 29.96 in 10.0 mi WNW 23.0 mph 29.9 mph N/A   Clear
2:53 PM 87.1 °F 84.9 °F 53.1 °F 31% 29.94 in 10.0 mi WNW 23.0 mph 29.9 mph N/A   Clear
3:53 PM 87.1 °F 84.9 °F 53.1 °F 31% 29.92 in 10.0 mi WNW 24.2 mph 33.4 mph N/A   Clear
4:53 PM 87.1 °F 85.1 °F 54.0 °F 32% 29.92 in 10.0 mi WNW 18.4 mph 25.3 mph N/A   Clear
5:53 PM 84.9 °F - 52.0 °F 32% 29.92 in 10.0 mi WNW 21.9 mph 28.8 mph N/A   Clear
6:53 PM 82.9 °F 81.8 °F 53.1 °F 36% 29.94 in 10.0 mi NW 18.4 mph 25.3 mph N/A   Clear
7:53 PM 80.1 °F 79.9 °F 53.1 °F 39% 29.95 in 10.0 mi WNW 11.5 mph 20.7 mph N/A   Clear
8:53 PM 77.0 °F - 53.1 °F 43% 29.97 in 10.0 mi WNW 6.9 mph - N/A   Clear
9:53 PM 73.9 °F - 54.0 °F 50% 29.98 in 10.0 mi NW 5.8 mph - N/A   Clear
10:53 PM 75.0 °F - 54.0 °F 48% 29.99 in 10.0 mi WNW 8.1 mph - N/A   Clear
11:53 PM 73.0 °F - 55.0 °F 53% 29.99 in 10.0 mi West 6.9 mph - N/A   Clear